QPF
0.01 0.01 0.02 0.02 0.05 0.08 0.08 0.09 0.09 0.11 0.18 0.20 0.20 0.20 0.25 0.27 0.28 0.32 0.33 0.27 0.25 0.28 0.30 0.33 0.32 0.31 0.28 0.24 0.23 0.23 0.22 0.21 0.20 0.21 0.21 0.18 0.18 0.20 0.17 0.14 0.13 0.11 0.10
0.01 0.01 0.01 0.03 0.05 0.08 0.07 0.07 0.09 0.09 0.11 0.14 0.17 0.21 0.26 0.27 0.25 0.27 0.29 0.26 0.24 0.27 0.28 0.32 0.33 0.30 0.29 0.27 0.25 0.24 0.22 0.21 0.19 0.19 0.20 0.19 0.19 0.17 0.15 0.13 0.09 0.08 0.08
0.02 0.02 0.03 0.04 0.04 0.03 0.04 0.05 0.08 0.08 0.09 0.10 0.11 0.14 0.20 0.19 0.19 0.21 0.25 0.24 0.20 0.22 0.29 0.34 0.34 0.32 0.30 0.28 0.25 0.25 0.25 0.21 0.21 0.20 0.18 0.14 0.14 0.15 0.14 0.11 0.08 0.07 0.07
0.02 0.03 0.03 0.05 0.06 0.04 0.05 0.06 0.07 0.07 0.08 0.09 0.10 0.11 0.11 0.10 0.11 0.12 0.16 0.18 0.16 0.13 0.18 0.29 0.31 0.30 0.29 0.26 0.25 0.25 0.25 0.24 0.21 0.19 0.14 0.11 0.09 0.09 0.12 0.12 0.10 0.08 0.06
0.02 0.02 0.03 0.04 0.06 0.06 0.06 0.08 0.08 0.07 0.09 0.13 0.12 0.11 0.11 0.11 0.10 0.10 0.11 0.13 0.11 0.10 0.11 0.16 0.20 0.22 0.23 0.21 0.23 0.27 0.27 0.25 0.23 0.22 0.18 0.12 0.09 0.08 0.08 0.09 0.10 0.10 0.08
0.03 0.02 0.02 0.03 0.05 0.06 0.07 0.07 0.09 0.08 0.09 0.13 0.14 0.13 0.13 0.11 0.10 0.09 0.09 0.09 0.08 0.07 0.09 0.13 0.14 0.15 0.17 0.17 0.16 0.18 0.22 0.22 0.22 0.21 0.19 0.16 0.13 0.11 0.09 0.09 0.09 0.09 0.09
0.02 0.02 0.02 0.01 0.02 0.03 0.04 0.04 0.06 0.08 0.07 0.10 0.16 0.16 0.11 0.08 0.06 0.06 0.06 0.07 0.09 0.08 0.07 0.09 0.12 0.14 0.14 0.16 0.14 0.13 0.14 0.17 0.18 0.17 0.16 0.16 0.14 0.12 0.11 0.11 0.10 0.09 0.09
0.04 0.03 0.02 0.01 0.01 0.01 0.01 0.01 0.02 0.04 0.05 0.06 0.09 0.12 0.12 0.12 0.09 0.07 0.07 0.06 0.07 0.09 0.09 0.10 0.11 0.11 0.13 0.13 0.12 0.10 0.10 0.12 0.13 0.14 0.13 0.13 0.12 0.13 0.12 0.10 0.10 0.11 0.11
0.05 0.03 0.02 0.01 0.02 0.02 0.01 0.01 0.01 0.02 0.03 0.04 0.06 0.06 0.08 0.11 0.09 0.09 0.09 0.06 0.06 0.07 0.07 0.09 0.11 0.09 0.10 0.11 0.12 0.11 0.11 0.10 0.09 0.10 0.08 0.08 0.09 0.10 0.10 0.09 0.09 0.10 0.12
0.02 0.02 0.01 0.02 0.03 0.02 0.03 0.03 0.02 0.02 0.03 0.03 0.04 0.04 0.06 0.08 0.08 0.08 0.07 0.06 0.06 0.06 0.05 0.05 0.07 0.06 0.05 0.06 0.07 0.08 0.08 0.08 0.08 0.09 0.07 0.06 0.07 0.09 0.11 0.11 0.10 0.10 0.10
0.02 0.02 0.02 0.02 0.01 0.02 0.03 0.03 0.03 0.03 0.03 0.02 0.02 0.03 0.04 0.05 0.06 0.07 0.07 0.06 0.05 0.06 0.04 0.03 0.04 0.04 0.03 0.03 0.04 0.05 0.06 0.07 0.07 0.08 0.07 0.07 0.07 0.09 0.11 0.13 0.14 0.15 0.14
0.02 0.01 0.02 0.02 0.02 0.02 0.03 0.04 0.04 0.02 0.02 0.02 0.02 0.03 0.04 0.04 0.05 0.05 0.05 0.04 0.03 0.04 0.04 0.03 0.03 0.03 0.03 0.03 0.03 0.03 0.04 0.04 0.04 0.06 0.07 0.07 0.06 0.06 0.08 0.09 0.10 0.11 0.11
0.01 0.01 0.01 0.01 0.01 0.03 0.03 0.03 0.02 0.01 0.01 0.02 0.03 0.03 0.04 0.04 0.04 0.04 0.04 0.04 0.03 0.03 0.02 0.02 0.02 0.02 0.02 0.03 0.03 0.03 0.04 0.04 0.04 0.03 0.04 0.05 0.06 0.05 0.06 0.06 0.06 0.07 0.07
0.01 0.01 0.01 0.01 0.01 0.02 0.03 0.02 0.01 0.01 0.02 0.02 0.03 0.04 0.05 0.04 0.04 0.04 0.03 0.03 0.02 0.02 0.02 0.01 0.02 0.02 0.02 0.02 0.02 0.03 0.04 0.04 0.03 0.02 0.02 0.03 0.03 0.04 0.03 0.04 0.04 0.04 0.04
0.00 0.00 0.00 0.00 0.02 0.02 0.02 0.02 0.02 0.01 0.02 0.03 0.03 0.03 0.04 0.04 0.04 0.04 0.03 0.02 0.02 0.02 0.01 0.01 0.02 0.02 0.03 0.03 0.02 0.02 0.02 0.02 0.02 0.02 0.01 0.01 0.02 0.02 0.02 0.01 0.02 0.01 0.02
0.01 0.01 0.01 0.01 0.01 0.02 0.01 0.01 0.01 0.01 0.02 0.03 0.04 0.03 0.03 0.04 0.05 0.05 0.03 0.02 0.02 0.02 0.02 0.01 0.02 0.02 0.03 0.04 0.04 0.02 0.01 0.01 0.01 0.02 0.01 0.01 0.01 0.01 0.01 0.01 0.01 0.00 0.00
0.01 0.01 0.01 0.02 0.01 0.01 0.01 0.02 0.02 0.01 0.02 0.02 0.03 0.03 0.03 0.03 0.04 0.04 0.04 0.02 0.02 0.02 0.02 0.02 0.01 0.02 0.02 0.03 0.03 0.02 0.02 0.01 0.01 0.01 0.01 0.01 0.00 0.00 0.00 0.00 0.00 0.00 0.00
0.01 0.01 0.01 0.02 0.02 0.02 0.02 0.03 0.03 0.02 0.02 0.02 0.02 0.03 0.03 0.03 0.03 0.04 0.04 0.03 0.03 0.03 0.03 0.02 0.02 0.02 0.02 0.02 0.03 0.02 0.01 0.01 0.01 0.01 0.01 0.01 0.01 0.00 0.00 0.00 0.00 0.00 0.00
0.02 0.02 0.02 0.02 0.02 0.03 0.03 0.03 0.03 0.03 0.02 0.02 0.02 0.02 0.02 0.03 0.03 0.03 0.03 0.03 0.03 0.04 0.04 0.03 0.02 0.01 0.01 0.02 0.01 0.01 0.01 0.00 0.00 0.01 0.01 0.01 0.01 0.00 0.00 0.00 0.00 0.00 0.00
0.02 0.02 0.02 0.02 0.02 0.02 0.02 0.03 0.03 0.03 0.02 0.02 0.02 0.03 0.02 0.03 0.03 0.03 0.03 0.02 0.03 0.03 0.03 0.02 0.02 0.01 0.01 0.01 0.01 0.00 0.00 0.00 0.00 0.00 0.00 0.00 0.00 0.00 0.00 0.00 0.00 0.00 0.00
0.01 0.02 0.02 0.02 0.02 0.02 0.03 0.02 0.03 0.02 0.02 0.02 0.03 0.03 0.02 0.02 0.02 0.03 0.03 0.03 0.03 0.03 0.03 0.02 0.02 0.01 0.01 0.01 0.01 0.00 0.01 0.01 0.00 0.00 0.00 0.00 0.00 0.00 0.00 0.00 0.00 0.00 0.00
0.02 0.01 0.02 0.02 0.02 0.02 0.02 0.03 0.03 0.02 0.02 0.02 0.02 0.02 0.02 0.03 0.03 0.03 0.04 0.03 0.03 0.03 0.02 0.02 0.01 0.00 0.01 0.01 0.01 0.00 0.00 0.00 0.00 0.00 0.00 0.00 0.00 0.00 0.00 0.00 0.00 0.00 0.00
0.01 0.01 0.01 0.02 0.02 0.01 0.01 0.02 0.01 0.01 0.01 0.01 0.01 0.01 0.02 0.02 0.02 0.02 0.02 0.03 0.03 0.02 0.02 0.01 0.00 0.00 0.00 0.00 0.00 0.00 0.00 0.00 0.00 0.00 0.00 0.00 0.00 0.00 0.00 0.00 0.00 0.00 0.00
0.01 0.01 0.02 0.02 0.02 0.02 0.01 0.01 0.01 0.01 0.01 0.01 0.01 0.01 0.01 0.01 0.01 0.01 0.02 0.02 0.01 0.01 0.01 0.01 0.00 0.00 0.00 0.00 0.00 0.00 0.00 0.00 0.00 0.00 0.00 0.00 0.00 0.00 0.00 0.00 0.00 0.00 0.00
0.01 0.01 0.01 0.02 0.02 0.01 0.01 0.00 0.00 0.00 0.00 0.01 0.01 0.01 0.01 0.01 0.01 0.01 0.02 0.01 0.01 0.01 0.01 0.00 0.00 0.00 0.00 0.00 0.00 0.00 0.00 0.00 0.00 0.00 0.00 0.00 0.00 0.00 0.00 0.00 0.00 0.00 0.00
0.01 0.01 0.01 0.01 0.01 0.01 0.00 0.00 0.00 0.00 0.00 0.00 0.00 0.00 0.01 0.01 0.01 0.01 0.01 0.01 0.00 0.00 0.00 0.00 0.00 0.00 0.00 0.00 0.00 0.00 0.00 0.00 0.00 0.00 0.00 0.00 0.00 0.00 0.00 0.00 0.00 0.00 0.00
MSLP
1015.77 1015.57 1015.33 1015.07 1014.77 1014.45 1014.12 1013.82 1013.56 1013.36 1013.23 1013.17 1013.15 1013.17 1013.21 1013.26 1013.31 1013.37 1013.47 1013.63 1013.85 1014.16 1014.55 1015.01 1015.52 1016.04 1016.56 1017.05 1017.52 1017.98 1018.44 1018.92 1019.45 1020.02 1020.62 1021.24 1021.84 1022.39 1022.84 1023.19 1023.41 1023.53 1023.57
1016.68 1016.57 1016.37 1016.08 1015.71 1015.26 1014.79 1014.33 1013.93 1013.62 1013.40 1013.29 1013.27 1013.30 1013.36 1013.43 1013.50 1013.57 1013.65 1013.77 1013.95 1014.20 1014.52 1014.91 1015.35 1015.80 1016.26 1016.71 1017.15 1017.59 1018.04 1018.54 1019.10 1019.72 1020.40 1021.10 1021.80 1022.45 1023.02 1023.47 1023.79 1024.00 1024.11
1017.42 1017.41 1017.27 1016.98 1016.55 1016.01 1015.41 1014.81 1014.27 1013.85 1013.56 1013.42 1013.39 1013.45 1013.55 1013.67 1013.79 1013.88 1013.97 1014.08 1014.22 1014.41 1014.66 1014.96 1015.31 1015.68 1016.06 1016.43 1016.81 1017.20 1017.63 1018.12 1018.68 1019.33 1020.04 1020.81 1021.58 1022.33 1023.00 1023.57 1024.01 1024.34 1024.56
1017.95 1018.05 1017.99 1017.73 1017.28 1016.67 1015.97 1015.26 1014.61 1014.09 1013.74 1013.56 1013.53 1013.62 1013.78 1013.97 1014.14 1014.28 1014.40 1014.51 1014.63 1014.77 1014.95 1015.17 1015.43 1015.70 1015.99 1016.29 1016.59 1016.93 1017.31 1017.76 1018.30 1018.93 1019.65 1020.43 1021.25 1022.06 1022.82 1023.50 1024.07 1024.52 1024.87
1018.31 1018.53 1018.56 1018.35 1017.91 1017.28 1016.52 1015.72 1014.98 1014.39 1013.97 1013.76 1013.74 1013.85 1014.06 1014.30 1014.53 1014.73 1014.89 1015.01 1015.12 1015.23 1015.36 1015.52 1015.69 1015.89 1016.10 1016.32 1016.56 1016.84 1017.16 1017.55 1018.04 1018.63 1019.31 1020.07 1020.88 1021.71 1022.52 1023.27 1023.95 1024.53 1025.01
1018.56 1018.90 1019.03 1018.90 1018.50 1017.87 1017.09 1016.25 1015.45 1014.80 1014.33 1014.08 1014.04 1014.16 1014.40 1014.68 1014.96 1015.21 1015.40 1015.55 1015.66 1015.75 1015.85 1015.95 1016.08 1016.22 1016.37 1016.54 1016.73 1016.96 1017.23 1017.56 1017.98 1018.48 1019.08 1019.77 1020.52 1021.32 1022.14 1022.94 1023.69 1024.37 1024.97
1018.78 1019.23 1019.46 1019.41 1019.08 1018.50 1017.73 1016.88 1016.06 1015.36 1014.85 1014.56 1014.49 1014.59 1014.82 1015.12 1015.42 1015.69 1015.91 1016.08 1016.20 1016.29 1016.36 1016.45 1016.54 1016.66 1016.79 1016.93 1017.10 1017.29 1017.51 1017.78 1018.12 1018.53 1019.02 1019.60 1020.25 1020.97 1021.74 1022.53 1023.32 1024.07 1024.76
1019.02 1019.56 1019.88 1019.94 1019.69 1019.17 1018.45 1017.63 1016.81 1016.09 1015.54 1015.21 1015.09 1015.15 1015.35 1015.62 1015.92 1016.20 1016.42 1016.59 1016.72 1016.81 1016.89 1016.96 1017.06 1017.17 1017.30 1017.44 1017.61 1017.78 1017.98 1018.20 1018.46 1018.76 1019.13 1019.58 1020.10 1020.71 1021.39 1022.13 1022.91 1023.69 1024.44
1019.31 1019.91 1020.32 1020.47 1020.31 1019.88 1019.23 1018.46 1017.66 1016.94 1016.37 1016.00 1015.82 1015.83 1015.97 1016.20 1016.47 1016.72 1016.94 1017.11 1017.23 1017.32 1017.40 1017.49 1017.59 1017.72 1017.86 1018.03 1018.21 1018.39 1018.57 1018.76 1018.95 1019.17 1019.42 1019.73 1020.11 1020.59 1021.16 1021.82 1022.55 1023.32 1024.10
1019.62 1020.28 1020.75 1020.97 1020.91 1020.56 1020.00 1019.30 1018.55 1017.86 1017.28 1016.88 1016.65 1016.59 1016.68 1016.85 1017.07 1017.29 1017.48 1017.64 1017.76 1017.86 1017.94 1018.03 1018.15 1018.29 1018.46 1018.65 1018.85 1019.05 1019.24 1019.40 1019.55 1019.70 1019.85 1020.05 1020.31 1020.65 1021.11 1021.68 1022.35 1023.08 1023.85
1019.95 1020.63 1021.14 1021.42 1021.42 1021.16 1020.69 1020.08 1019.40 1018.75 1018.19 1017.78 1017.52 1017.41 1017.44 1017.56 1017.73 1017.92 1018.09 1018.23 1018.35 1018.44 1018.53 1018.63 1018.75 1018.90 1019.08 1019.29 1019.51 1019.73 1019.92 1020.09 1020.22 1020.32 1020.42 1020.53 1020.70 1020.94 1021.30 1021.78 1022.37 1023.06 1023.79
1020.27 1020.94 1021.46 1021.75 1021.80 1021.62 1021.23 1020.71 1020.12 1019.54 1019.03 1018.63 1018.37 1018.24 1018.23 1018.32 1018.46 1018.62 1018.78 1018.91 1019.03 1019.12 1019.21 1019.30 1019.42 1019.56 1019.74 1019.95 1020.18 1020.40 1020.61 1020.79 1020.92 1021.01 1021.08 1021.16 1021.27 1021.45 1021.73 1022.13 1022.65 1023.28 1023.96
1020.54 1021.18 1021.67 1021.96 1022.04 1021.91 1021.60 1021.17 1020.68 1020.19 1019.74 1019.39 1019.16 1019.04 1019.03 1019.10 1019.23 1019.39 1019.56 1019.70 1019.83 1019.92 1020.01 1020.09 1020.19 1020.31 1020.46 1020.65 1020.86 1021.08 1021.29 1021.48 1021.62 1021.73 1021.81 1021.88 1021.98 1022.12 1022.36 1022.71 1023.17 1023.73 1024.35
1020.79 1021.36 1021.80 1022.06 1022.13 1022.04 1021.80 1021.47 1021.07 1020.68 1020.33 1020.05 1019.86 1019.78 1019.80 1019.89 1020.04 1020.23 1020.41 1020.58 1020.72 1020.84 1020.92 1020.99 1021.06 1021.14 1021.25 1021.39 1021.56 1021.76 1021.96 1022.15 1022.32 1022.45 1022.56 1022.66 1022.77 1022.91 1023.13 1023.44 1023.84 1024.34 1024.89
1020.99 1021.49 1021.85 1022.06 1022.12 1022.05 1021.88 1021.62 1021.33 1021.05 1020.79 1020.60 1020.49 1020.47 1020.53 1020.66 1020.86 1021.08 1021.30 1021.52 1021.69 1021.82 1021.91 1021.97 1022.00 1022.04 1022.09 1022.17 1022.29 1022.44 1022.62 1022.81 1022.99 1023.15 1023.30 1023.43 1023.57 1023.73 1023.95 1024.22 1024.58 1025.00 1025.48
1021.19 1021.59 1021.87 1022.02 1022.06 1022.00 1021.88 1021.71 1021.52 1021.33 1021.18 1021.08 1021.04 1021.09 1021.20 1021.39 1021.63 1021.91 1022.18 1022.44 1022.66 1022.82 1022.92 1022.97 1022.98 1022.97 1022.96 1022.98 1023.03 1023.13 1023.27 1023.44 1023.62 1023.81 1023.99 1024.16 1024.33 1024.51 1024.72 1024.97 1025.27 1025.62 1026.01
1021.36 1021.68 1021.88 1021.98 1021.99 1021.95 1021.87 1021.78 1021.67 1021.58 1021.52 1021.51 1021.55 1021.65 1021.82 1022.05 1022.34 1022.66 1022.99 1023.30 1023.56 1023.76 1023.88 1023.94 1023.93 1023.88 1023.82 1023.78 1023.77 1023.81 1023.91 1024.05 1024.22 1024.42 1024.61 1024.81 1025.00 1025.19 1025.39 1025.60 1025.85 1026.12 1026.42
1021.53 1021.77 1021.90 1021.96 1021.97 1021.94 1021.91 1021.88 1021.86 1021.85 1021.87 1021.92 1022.01 1022.16 1022.36 1022.63 1022.95 1023.31 1023.67 1024.03 1024.33 1024.57 1024.72 1024.79 1024.78 1024.72 1024.63 1024.54 1024.48 1024.47 1024.52 1024.63 1024.79 1024.97 1025.17 1025.37 1025.57 1025.75 1025.92 1026.10 1026.28 1026.47 1026.67
1021.66 1021.85 1021.94 1021.98 1022.00 1022.00 1022.02 1022.05 1022.09 1022.15 1022.23 1022.32 1022.45 1022.62 1022.84 1023.12 1023.45 1023.82 1024.22 1024.60 1024.94 1025.21 1025.40 1025.49 1025.50 1025.44 1025.34 1025.23 1025.15 1025.10 1025.12 1025.19 1025.32 1025.48 1025.67 1025.86 1026.04 1026.20 1026.33 1026.46 1026.57 1026.68 1026.79
1021.75 1021.91 1022.00 1022.05 1022.09 1022.13 1022.20 1022.29 1022.39 1022.49 1022.60 1022.73 1022.87 1023.04 1023.25 1023.53 1023.85 1024.22 1024.62 1025.02 1025.38 1025.68 1025.91 1026.04 1026.07 1026.04 1025.95 1025.84 1025.75 1025.68 1025.68 1025.72 1025.83 1025.96 1026.13 1026.29 1026.44 1026.56 1026.66 1026.72 1026.77 1026.80 1026.83
1021.81 1021.97 1022.07 1022.15 1022.23 1022.33 1022.45 1022.58 1022.72 1022.87 1023.00 1023.13 1023.27 1023.43 1023.63 1023.88 1024.19 1024.54 1024.92 1025.32 1025.69 1026.02 1026.27 1026.43 1026.51 1026.50 1026.45 1026.36 1026.27 1026.21 1026.19 1026.22 1026.30 1026.41 1026.54 1026.67 1026.78 1026.87 1026.92 1026.94 1026.92 1026.89 1026.85
1021.83 1022.02 1022.16 1022.29 1022.42 1022.57 1022.73 1022.91 1023.09 1023.25 1023.40 1023.53 1023.67 1023.81 1023.99 1024.21 1024.48 1024.81 1025.17 1025.55 1025.92 1026.26 1026.53 1026.72 1026.83 1026.86 1026.84 1026.79 1026.72 1026.67 1026.65 1026.67 1026.72 1026.81 1026.91 1027.00 1027.08 1027.13 1027.14 1027.11 1027.06 1026.98 1026.89
1021.86 1022.09 1022.28 1022.46 1022.64 1022.84 1023.05 1023.26 1023.45 1023.63 1023.79 1023.92 1024.05 1024.18 1024.33 1024.53 1024.78 1025.07 1025.41 1025.77 1026.12 1026.45 1026.73 1026.93 1027.07 1027.14 1027.15 1027.12 1027.08 1027.04 1027.03 1027.04 1027.07 1027.13 1027.20 1027.26 1027.30 1027.32 1027.30 1027.26 1027.18 1027.08 1026.96
1021.90 1022.18 1022.43 1022.66 1022.89 1023.12 1023.36 1023.59 1023.81 1023.99 1024.15 1024.28 1024.41 1024.53 1024.68 1024.86 1025.08 1025.35 1025.66 1025.99 1026.32 1026.63 1026.90 1027.11 1027.25 1027.34 1027.37 1027.36 1027.34 1027.31 1027.29 1027.29 1027.31 1027.34 1027.38 1027.42 1027.43 1027.43 1027.40 1027.34 1027.26 1027.15 1027.04
1021.99 1022.31 1022.60 1022.88 1023.14 1023.40 1023.66 1023.90 1024.12 1024.31 1024.47 1024.61 1024.74 1024.86 1025.01 1025.18 1025.40 1025.65 1025.93 1026.23 1026.53 1026.81 1027.05 1027.24 1027.38 1027.47 1027.50 1027.50 1027.48 1027.46 1027.43 1027.42 1027.42 1027.43 1027.44 1027.45 1027.44 1027.43 1027.39 1027.34 1027.27 1027.18 1027.08
1022.10 1022.47 1022.79 1023.10 1023.39 1023.66 1023.92 1024.16 1024.37 1024.56 1024.72 1024.87 1025.00 1025.14 1025.30 1025.48 1025.68 1025.92 1026.18 1026.45 1026.71 1026.95 1027.16 1027.33 1027.45 1027.52 1027.55 1027.54 1027.52 1027.48 1027.44 1027.41 1027.39 1027.37 1027.36 1027.35 1027.34 1027.31 1027.29 1027.25 1027.20 1027.14 1027.07
Thickness
5680 5681 5682 5683 5684 5683 5682 5682 5681 5680 5681 5680 5680 5680 5679 5679 5680 5680 5680 5681 5681 5682 5682 5683 5682 5682 5682 5683 5684 5682 5681 5679 5679 5676 5673 5672 5673 5674 5674 5674 5674 5673 5672
5671 5671 5672 5673 5673 5673 5673 5673 5672 5672 5672 5672 5672 5672 5671 5670 5671 5672 5672 5673 5673 5675 5675 5676 5675 5676 5676 5677 5677 5677 5675 5673 5673 5671 5667 5663 5662 5664 5665 5666 5666 5665 5663
5661 5661 5661 5661 5662 5662 5662 5663 5663 5664 5663 5664 5663 5663 5663 5663 5663 5663 5663 5664 5665 5667 5667 5667 5668 5670 5670 5670 5671 5671 5670 5668 5667 5667 5665 5661 5658 5656 5654 5655 5655 5655 5654
5653 5651 5650 5650 5651 5651 5652 5653 5655 5656 5656 5656 5655 5654 5653 5652 5652 5652 5653 5655 5656 5657 5658 5659 5661 5662 5663 5664 5665 5666 5666 5664 5662 5660 5661 5661 5659 5653 5648 5645 5645 5645 5644
5644 5641 5639 5638 5639 5640 5642 5643 5645 5646 5647 5648 5647 5645 5644 5643 5643 5643 5644 5645 5646 5648 5649 5651 5653 5654 5655 5656 5657 5658 5659 5658 5657 5655 5655 5652 5651 5651 5647 5641 5637 5634 5633
5635 5632 5630 5629 5629 5630 5631 5633 5634 5634 5635 5636 5637 5636 5635 5635 5635 5634 5634 5635 5636 5638 5640 5642 5643 5645 5646 5647 5648 5649 5650 5650 5650 5650 5650 5649 5647 5645 5643 5638 5632 5627 5624
5627 5623 5621 5620 5619 5619 5620 5622 5623 5623 5624 5624 5625 5625 5625 5625 5625 5624 5624 5625 5626 5627 5629 5632 5633 5635 5636 5637 5638 5639 5640 5641 5641 5642 5642 5643 5642 5641 5638 5634 5625 5619 5614
5620 5616 5613 5611 5610 5609 5610 5611 5611 5612 5612 5613 5613 5614 5614 5613 5613 5613 5614 5615 5616 5617 5619 5622 5623 5624 5625 5626 5628 5629 5630 5631 5631 5632 5633 5634 5633 5633 5632 5628 5622 5613 5606
5613 5609 5605 5603 5601 5600 5600 5600 5601 5601 5601 5602 5603 5603 5603 5603 5602 5603 5604 5604 5605 5607 5609 5611 5612 5613 5614 5615 5617 5618 5618 5620 5621 5621 5622 5623 5624 5624 5623 5622 5619 5613 5604
5606 5601 5598 5595 5593 5592 5591 5591 5592 5591 5591 5591 5592 5592 5592 5592 5592 5593 5594 5594 5595 5596 5598 5600 5601 5602 5603 5604 5606 5606 5606 5608 5609 5610 5611 5612 5612 5612 5612 5611 5608 5607 5602
5601 5595 5590 5587 5585 5583 5582 5582 5581 5581 5581 5581 5581 5581 5581 5581 5582 5582 5582 5583 5584 5585 5586 5588 5589 5591 5592 5593 5594 5594 5595 5597 5598 5599 5600 5601 5601 5601 5600 5599 5597 5594 5592
5594 5588 5583 5580 5577 5575 5573 5572 5571 5570 5570 5570 5570 5570 5570 5570 5570 5570 5571 5571 5572 5573 5575 5576 5578 5579 5580 5581 5582 5583 5584 5585 5586 5587 5588 5588 5589 5588 5587 5586 5585 5582 5580
5587 5581 5576 5572 5569 5566 5564 5563 5561 5560 5560 5559 5559 5558 5558 5559 5559 5559 5559 5560 5560 5561 5562 5564 5565 5566 5567 5569 5570 5571 5572 5572 5573 5574 5575 5575 5576 5575 5574 5573 5572 5570 5567
5581 5574 5568 5564 5560 5557 5555 5553 5551 5550 5550 5550 5549 5548 5548 5547 5547 5547 5547 5548 5549 5549 5550 5551 5552 5554 5555 5557 5558 5559 5559 5560 5560 5561 5562 5563 5563 5563 5562 5561 5559 5557 5554
5576 5569 5561 5556 5552 5548 5546 5544 5542 5541 5540 5540 5539 5538 5537 5537 5537 5537 5536 5537 5537 5538 5538 5539 5541 5542 5544 5545 5546 5547 5547 5548 5548 5549 5549 5551 5551 5551 5551 5550 5547 5545 5542
5571 5563 5556 5550 5544 5541 5538 5536 5534 5532 5531 5530 5529 5528 5528 5527 5527 5527 5526 5526 5526 5526 5527 5527 5529 5530 5531 5533 5535 5536 5536 5536 5536 5537 5537 5538 5539 5539 5539 5538 5536 5535 5533
5566 5557 5549 5543 5538 5533 5530 5528 5526 5524 5523 5522 5521 5520 5519 5518 5518 5518 5518 5517 5516 5516 5516 5517 5518 5519 5520 5523 5524 5525 5525 5525 5525 5525 5526 5527 5527 5527 5527 5526 5525 5523 5522
5560 5551 5543 5536 5531 5527 5523 5521 5519 5517 5515 5513 5513 5512 5511 5511 5510 5510 5509 5508 5507 5507 5506 5507 5508 5509 5511 5512 5514 5514 5515 5514 5514 5515 5515 5515 5516 5516 5517 5516 5515 5513 5512
5552 5543 5536 5530 5524 5520 5517 5514 5512 5510 5508 5507 5506 5505 5505 5504 5503 5502 5501 5500 5499 5498 5498 5498 5499 5500 5501 5503 5504 5505 5505 5504 5504 5505 5505 5506 5506 5506 5507 5507 5506 5505 5503
5545 5537 5530 5524 5518 5514 5511 5509 5506 5504 5502 5501 5500 5499 5498 5497 5496 5495 5494 5494 5493 5492 5491 5491 5491 5492 5492 5494 5495 5497 5496 5495 5495 5495 5496 5497 5497 5498 5498 5499 5498 5497 5495
5539 5531 5524 5518 5513 5509 5507 5504 5501 5499 5498 5497 5495 5494 5493 5492 5491 5490 5489 5488 5488 5486 5486 5485 5484 5485 5485 5486 5487 5488 5488 5487 5488 5488 5488 5489 5490 5491 5491 5491 5491 5490 5489
5533 5526 5519 5513 5509 5506 5503 5499 5497 5495 5494 5492 5490 5489 5488 5488 5487 5486 5484 5483 5482 5481 5480 5479 5478 5478 5479 5480 5480 5481 5482 5482 5482 5482 5482 5483 5484 5485 5486 5485 5485 5484 5484
5528 5522 5516 5510 5506 5503 5500 5497 5494 5492 5490 5488 5486 5484 5483 5482 5482 5481 5480 5478 5477 5477 5475 5474 5474 5473 5473 5473 5475 5476 5476 5477 5477 5477 5478 5479 5480 5480 5480 5479 5479 5479 5479
5524 5518 5513 5508 5504 5501 5498 5496 5493 5490 5488 5485 5483 5481 5480 5479 5478 5477 5477 5476 5475 5474 5473 5472 5471 5470 5470 5470 5471 5471 5472 5473 5473 5473 5474 5474 5475 5474 5474 5474 5473 5473 5473
5522 5516 5511 5507 5503 5500 5497 5495 5492 5489 5486 5483 5481 5478 5477 5476 5474 5473 5472 5473 5472 5472 5471 5470 5469 5468 5468 5468 5468 5469 5469 5469 5469 5470 5471 5471 5470 5470 5469 5469 5468 5468 5468
5520 5514 5510 5506 5502 5499 5496 5494 5491 5488 5485 5482 5479 5477 5475 5474 5472 5472 5471 5470 5471 5471 5471 5470 5468 5467 5467 5467 5467 5468 5468 5468 5468 5468 5467 5466 5466 5466 5465 5465 5465 5465 5465